This is the latest recevied weather packets stored in our database for station/object NK7I. If no packets are shown the sender has not sent any weather packets the latest 1 day(s).
| Time | Temp. | Humidity | Pressure | Rain* | Wind** | Luminosity | Snow |
|---|---|---|---|---|---|---|---|
| 1778035583 | 20.56° C | 33% | 1009.5 hPa | 0 mm | 0 m/s | 12 W/m² | - |
| 1778035283 | 20.56° C | 32% | 1009.4 hPa | 0 mm | 0 m/s | 16 W/m² | - |
| 1778034983 | 21.11° C | 33% | 1009.4 hPa | 0 mm | 0 m/s | 19 W/m² | - |
| 1778034683 | 21.11° C | 34% | 1009.3 hPa | 0 mm | 0 m/s | 21 W/m² | - |
| 1778034383 | 21.11° C | 35% | 1009.3 hPa | 0 mm | 0 m/s | 26 W/m² | - |
| 1778034083 | 21.11° C | 34% | 1009.3 hPa | 0 mm | 0 m/s | 30 W/m² | - |
| 1778033783 | 21.11° C | 32% | 1009.3 hPa | 0 mm | 0 m/s | 33 W/m² | - |
| 1778033483 | 21.67° C | 32% | 1009.2 hPa | 0 mm | 0 m/s | 47 W/m² | - |
| 1778033183 | 22.22° C | 30% | 1009.2 hPa | 0 mm | 0 m/s | 39 W/m² | - |
| 1778032883 | 22.22° C | 30% | 1009.2 hPa | 0 mm | 0 m/s | 42 W/m² | - |
| 1778032584 | 22.22° C | 31% | 1009.3 hPa | 0 mm | 0 m/s | 60 W/m² | - |
| 1778032283 | 22.78° C | 30% | 1009.3 hPa | 0 mm | 0 m/s | 49 W/m² | - |
| 1778031983 | 22.78° C | 30% | 1009.2 hPa | 0 mm | 0 m/s | 51 W/m² | - |
| 1778031683 | 23.33° C | 29% | 1009.3 hPa | 0 mm | 0.45 m/s, 242° | 102 W/m² | - |
| 1778031383 | 23.33° C | 28% | 1009.2 hPa | 0 mm | 0.45 m/s, 242° | 172 W/m² | - |
| 1778031083 | 23.33° C | 28% | 1009.3 hPa | 0 mm | 0 m/s | 206 W/m² | - |
| 1778030783 | 23.33° C | 26% | 1009.3 hPa | 0 mm | 0 m/s | 229 W/m² | - |
| 1778030483 | 23.33° C | 25% | 1009.3 hPa | 0 mm | 0 m/s | 255 W/m² | - |
| 1778030184 | 23.33° C | 25% | 1009.3 hPa | 0 mm | 0 m/s | 262 W/m² | - |
| 1778029883 | 23.33° C | 26% | 1009.3 hPa | 0 mm | 0.45 m/s, 242° | 246 W/m² | - |
| 1778029583 | 23.33° C | 31% | 1009.4 hPa | 0 mm | 0 m/s | 323 W/m² | - |
| 1778029284 | 23.89° C | 28% | 1009.3 hPa | 0 mm | 0 m/s | 348 W/m² | - |
| 1778028983 | 23.89° C | 25% | 1009.5 hPa | 0 mm | 0.89 m/s, 249° | 373 W/m² | - |
| 1778028682 | 23.89° C | 28% | 1009.3 hPa | 0 mm | 0 m/s | 394 W/m² | - |
| 1778028383 | 23.89° C | 29% | 1009.5 hPa | 0 mm | 0.45 m/s, 247° | 417 W/m² | - |
* Rain latest hour (hover to see other rain measurements)
** Current wind speed in m/s (hover to see current wind gust speed)